OneWeb SL0532

operational
NORAD ID: 55140 Int'l Des: 2023-004 Owner: ONEWEBN Country: UK Constellation: oneweb
LEOCIRCULARPOLARONEWEB_TYPE

关于 OneWeb SL0532

正在加载描述...

实时位置

正在加载3D地球...

即将过境

高度历史

Altitude vs Time

uPlot chart will show altitude changes over time

两行轨道根数

1 55140U 23004A 25304.84513385 -.00001658 00000-0 -43028-2 0 9996
2 55140 87.9126 51.2627 0001615 87.5813 272.5504 13.17661778137517
Epoch: Oct 31, 2025 • Age: 16 hours

当前状态

高度 1212.1 km
速度 7.25 km/s
星下点 -45.25°S, 12.18°E
发射日期 Jan 10, 2023
运行时间 2.8 years
类型 internet

技术详情

分类 Payload
质量 148.00 kg
干质量 140.00 kg
总质量 148.00 kg
长度 1.30 m
直径 1.00 m
跨度 5.00 m
形状 Trapezoid+2 pan
制造商 ONEWUS
平台类型 ARROW
阶段状态 In Orbit
所有者/国家 ONEWEBN/UK

大型星座

Loading constellations...